Probability
0 0 0 0 0 0 0 0 0 0 0 0 0 0 0 0 0 0 0 0 0 0 0 0 0 0 0 0 0 0 0 0 0 0 0 0 0 0 0 0 0 0 0
0 0 0 0 0 0 0 0 0 0 0 0 0 0 0 0 0 0 0 0 0 0 0 0 0 0 0 0 0 0 0 0 0 0 0 0 0 0 0 0 0 0 0
0 0 0 0 0 0 0 0 0 0 0 0 0 0 0 0 0 0 0 0 0 0 0 0 0 0 0 0 0 0 0 0 0 0 0 0 0 0 0 0 0 0 0
0 0 0 0 0 0 0 0 0 0 0 0 0 0 0 0 0 0 0 0 0 0 0 0 0 0 0 0 0 0 0 0 0 0 0 0 0 0 0 0 0 0 0
0 0 0 0 0 0 0 0 0 0 0 0 0 0 0 0 0 0 0 0 0 0 0 0 0 0 0 0 0 0 0 0 0 0 0 0 0 0 0 0 0 0 0
0 0 0 0 0 0 0 0 0 0 0 0 0 0 0 0 0 0 0 0 0 0 0 0 0 0 0 0 0 0 0 0 0 0 0 0 0 0 0 0 0 0 0
0 0 0 0 0 0 0 0 0 0 0 0 0 0 0 0 0 0 0 0 0 0 0 0 0 0 0 0 0 0 0 0 0 0 0 0 0 0 0 0 0 0 0
0 0 0 1 0 0 0 0 0 0 0 0 0 0 0 0 0 0 0 0 0 0 0 0 0 0 0 0 0 0 0 0 0 0 0 0 0 0 0 0 0 0 0
0 0 0 0 0 0 0 0 0 0 0 0 0 0 0 0 0 0 0 0 0 0 0 0 0 0 0 0 0 0 0 0 0 0 0 0 0 0 0 0 0 0 0
0 0 0 0 0 0 0 0 0 0 0 0 0 0 0 0 0 0 0 0 0 0 0 0 0 0 0 0 0 0 0 0 0 0 0 0 0 0 0 0 0 0 0
0 0 0 0 0 0 0 0 0 0 0 0 0 0 0 0 0 0 0 0 0 0 0 0 0 0 0 0 0 0 0 0 0 0 0 0 0 0 0 0 0 0 0
0 0 0 0 0 0 0 0 0 0 0 0 0 0 0 0 0 0 0 0 0 0 0 0 0 0 0 0 0 0 0 0 0 0 0 0 0 0 0 0 0 0 0
0 0 0 0 0 0 0 0 0 0 0 0 0 0 0 0 0 0 0 0 0 0 0 0 0 0 0 0 0 0 0 0 0 0 0 0 0 0 0 0 0 0 0
0 0 0 0 0 0 0 0 0 0 0 0 0 0 0 0 0 0 0 0 0 0 0 0 0 0 0 0 0 0 0 0 0 0 0 0 0 0 0 0 0 0 0
0 0 0 0 0 0 0 0 0 0 0 0 0 0 0 0 0 0 0 0 0 0 0 0 0 0 0 0 0 0 0 0 0 0 0 0 0 0 0 0 0 0 0
0 0 0 0 0 0 0 0 0 0 0 0 0 0 0 0 0 0 0 0 0 0 0 0 0 0 0 0 0 0 0 0 0 0 0 0 0 0 0 0 0 0 0
0 0 0 0 0 0 0 0 0 0 0 0 0 0 0 0 0 0 0 0 0 0 0 0 0 0 0 0 0 0 0 0 0 0 0 0 0 0 0 0 0 0 0
0 0 0 0 0 0 0 0 0 0 0 0 0 0 0 0 0 0 0 0 0 0 0 0 0 0 0 0 0 0 0 0 0 0 0 0 0 0 0 0 0 0 0
0 0 0 0 0 0 0 0 0 0 0 0 0 0 0 0 0 0 0 0 0 0 0 0 0 0 0 0 0 0 0 0 0 0 0 0 0 0 0 0 0 0 0
0 0 0 0 0 0 0 0 0 0 0 0 0 0 0 0 0 0 0 0 0 0 0 0 0 0 0 0 0 0 0 0 0 0 0 0 0 0 0 0 0 0 0
0 0 0 0 0 0 0 0 0 0 0 0 0 0 0 0 0 0 0 0 0 0 0 0 0 0 0 0 0 0 0 0 0 0 0 0 0 0 0 0 0 0 0
0 0 0 0 0 0 0 0 0 0 0 0 0 0 0 0 0 0 0 0 0 0 0 0 0 0 0 0 0 0 0 0 0 0 0 0 0 0 0 0 0 0 0
0 0 0 0 0 0 0 0 0 0 0 0 0 0 0 0 0 0 0 0 0 0 0 0 0 0 0 0 0 0 0 0 0 0 0 0 0 0 0 0 0 0 0
0 0 0 0 0 0 0 0 0 0 0 0 0 0 0 0 0 0 0 0 0 0 0 0 0 0 0 0 0 0 0 0 0 0 0 0 0 0 0 0 0 0 0
0 0 0 0 0 0 0 0 0 0 0 0 0 0 0 0 0 0 0 0 0 0 0 0 0 0 0 0 0 0 0 0 0 0 0 0 0 0 0 0 0 0 0
0 0 0 0 0 0 0 0 0 0 0 0 0 0 0 0 0 0 0 0 0 0 0 0 0 0 0 0 0 0 0 0 0 0 0 0 0 0 0 0 0 0 0
Wind_Speed
5 8 16 14 15 15 14 12 10 8 7 6 7 6 5 5 4 4 4 4 5 4 3 3 3 4 6 7 8 8 6 7 8 6 4 4 5 6 7 7 5 2 5
8 9 15 15 15 15 14 12 10 9 8 6 6 6 6 6 6 5 5 5 5 5 4 2 1 3 4 6 9 7 5 4 4 3 1 2 3 6 6 5 6 4 8
10 9 12 14 16 15 13 11 10 9 8 6 5 7 9 7 6 5 5 4 5 5 4 1 2 4 4 5 8 6 3 1 2 2 3 3 3 7 7 6 6 8 9
12 9 9 14 16 15 13 11 10 9 7 6 6 6 9 9 7 6 5 3 3 4 4 2 1 4 3 4 5 4 1 2 4 6 1 3 2 6 6 5 5 6 6
10 9 11 16 17 16 14 12 10 9 7 6 7 6 8 9 8 6 5 5 4 4 4 3 1 1 3 2 2 2 2 4 7 7 1 3 1 5 5 5 5 5 4
9 9 12 18 17 16 15 13 11 10 8 6 5 5 7 9 9 7 7 6 6 5 4 4 2 2 3 1 2 3 3 3 5 5 0 3 2 6 6 5 6 6 5
9 8 12 19 18 17 16 15 13 11 10 8 7 4 4 8 9 8 7 6 6 5 5 5 6 6 5 5 6 6 5 3 1 2 2 4 5 8 7 7 6 6 6
10 9 10 18 17 17 17 15 13 12 11 11 10 7 5 6 6 7 7 7 7 7 7 7 8 9 9 8 9 9 8 5 0 1 3 5 8 9 9 8 7 7 6
9 9 8 9 11 14 14 14 13 12 11 10 11 9 6 5 5 7 7 7 9 9 8 8 9 10 11 11 11 10 9 8 2 2 3 4 10 12 11 10 9 9 9
7 9 8 8 8 8 9 13 13 11 10 9 10 9 7 6 6 7 6 8 10 10 10 10 11 11 12 13 13 12 10 9 4 4 3 6 14 15 13 12 12 11 11
8 7 8 8 8 8 7 9 11 10 10 8 9 11 8 4 4 5 7 9 11 12 12 12 13 13 12 13 13 12 10 4 4 4 4 10 17 17 16 15 15 14 13
10 9 8 9 9 8 8 6 5 5 5 5 5 6 5 4 5 7 9 12 14 14 14 15 14 13 10 5 7 10 4 5 5 4 5 14 18 19 18 18 17 17 16
8 9 11 10 9 8 6 5 4 3 3 5 6 7 5 5 4 5 4 6 9 10 7 9 8 5 4 4 4 4 5 5 4 5 7 16 20 22 21 20 19 19 19
7 8 9 11 9 9 7 6 5 4 4 4 6 7 6 4 5 5 5 6 6 4 5 5 4 5 6 6 6 7 7 6 5 5 8 17 21 24 23 22 22 22 21
9 10 9 11 12 10 8 6 7 7 7 7 7 8 8 6 6 5 5 6 7 5 5 5 6 7 7 7 7 8 9 9 9 8 7 16 21 25 25 24 24 24 24
13 12 11 12 13 11 10 9 8 8 8 7 8 9 10 9 8 7 7 8 8 6 6 6 7 7 7 7 9 9 10 9 9 10 9 11 19 24 27 27 27 26 26
10 9 11 13 11 12 12 11 9 8 7 8 8 9 11 10 10 8 7 8 6 4 5 5 6 5 6 6 9 10 9 10 10 11 10 9 10 18 25 29 28 28 27
8 9 12 12 12 12 11 10 7 7 8 7 7 7 9 9 8 6 6 6 4 4 5 6 6 6 7 7 8 8 8 8 11 11 11 10 9 9 16 27 28 29 30
4 6 8 9 11 13 11 8 7 7 8 7 6 6 7 8 7 6 7 6 6 5 6 8 7 6 8 9 8 8 7 8 10 11 12 12 12 12 11 16 24 26 28
7 7 3 3 5 6 5 4 3 5 6 5 6 7 8 7 8 8 8 8 7 6 7 7 8 8 8 6 8 10 8 10 10 11 12 11 12 13 13 13 13 16 25
9 9 8 6 2 3 3 4 4 5 4 4 5 7 7 7 8 8 8 8 7 9 11 10 9 9 9 5 5 8 10 12 14 12 9 11 13 12 12 14 12 11 11
9 9 9 8 7 2 2 2 2 1 2 4 3 4 6 7 8 8 10 10 9 9 11 10 9 8 9 6 6 6 6 6 8 10 11 13 14 10 13 14 14 13 10
10 9 9 9 9 8 4 3 3 2 2 2 2 3 5 7 8 9 11 11 9 9 10 11 10 13 12 9 10 10 8 8 4 5 7 9 11 10 11 11 14 15 14
8 7 9 9 9 9 8 7 6 3 3 3 3 3 5 5 6 7 9 10 10 9 11 12 12 11 13 12 9 11 13 7 7 6 6 6 9 11 11 10 12 14 14
7 8 8 9 9 9 8 8 7 5 3 3 3 5 6 5 6 6 6 6 8 8 10 11 11 12 11 12 11 9 11 12 13 12 13 10 7 9 10 11 11 11 11
7 7 7 9 9 9 9 9 8 8 7 7 7 7 6 5 5 8 8 7 7 6 8 10 11 12 11 13 12 10 9 9 9 12 15 14 13 9 9 10 11 11 10
Wind_Direction
189 173 178 175 169 159 154 155 162 166 158 162 166 169 154 142 131 118 111 119 120 105 95 129 145 120 116 116 112 110 111 107 98 87 95 116 114 104 78 67 64 91 112
160 167 173 175 170 160 157 161 168 170 163 170 181 168 159 149 147 139 132 128 133 123 117 134 134 133 129 146 132 125 128 123 113 101 135 186 146 115 99 85 89 104 106
151 164 170 174 166 159 159 164 169 173 172 178 194 177 159 150 147 143 126 118 121 124 124 130 314 156 126 135 135 129 143 137 59 357 228 222 163 127 119 101 101 99 101
155 161 167 172 165 162 163 166 171 177 178 183 210 193 167 155 143 137 136 160 148 132 143 163 319 143 143 131 130 126 184 333 2 358 189 200 184 132 133 138 125 103 98
157 164 169 171 169 166 166 169 176 180 180 197 220 197 174 160 151 151 162 171 162 156 159 168 16 132 145 85 115 132 296 335 359 2 120 147 142 148 137 136 135 123 111
163 167 169 171 173 171 170 173 177 182 189 199 189 179 182 171 159 167 175 178 179 181 177 184 206 232 195 208 245 221 268 329 8 359 253 163 173 159 149 146 141 137 138
168 174 173 174 176 176 175 179 179 185 192 189 171 158 177 180 176 175 184 190 191 194 200 208 216 223 224 228 239 232 248 295 19 4 243 196 183 178 174 174 168 160 155
169 175 176 178 178 179 180 182 182 188 197 199 190 186 198 206 199 191 201 213 210 207 209 217 225 228 230 229 234 235 243 258 249 338 233 210 189 191 190 187 188 182 174
166 168 173 176 177 179 182 184 186 193 208 209 196 198 209 219 211 211 217 224 220 221 224 228 232 234 234 234 233 238 246 259 248 239 239 227 200 201 200 197 199 195 192
173 171 173 172 171 175 184 188 190 195 209 204 195 191 202 208 209 218 224 224 220 223 229 235 240 240 237 236 235 236 242 255 245 229 238 230 215 209 207 206 208 205 204
187 184 180 180 179 178 184 192 194 196 205 206 197 190 195 204 213 219 217 217 218 220 226 235 241 243 242 238 237 236 239 241 246 239 233 233 223 217 213 210 213 213 212
192 196 192 191 188 184 191 190 194 197 201 198 188 192 189 195 215 224 226 223 224 222 225 234 241 243 242 233 241 242 237 238 242 244 237 239 233 227 222 216 216 217 217
196 196 198 197 193 191 193 182 189 198 199 198 195 196 197 204 220 229 228 231 229 228 229 240 247 240 231 223 233 241 241 237 238 245 242 243 238 234 230 224 221 222 223
213 213 194 196 197 199 196 188 186 195 203 206 205 202 203 214 223 222 222 221 221 222 227 232 239 242 238 234 233 238 239 234 233 237 240 245 238 235 234 231 227 226 227
217 218 205 189 196 197 195 193 194 201 206 209 211 213 211 218 227 225 224 222 223 219 219 225 233 235 238 239 236 234 240 236 236 236 241 243 237 236 238 238 235 233 232
223 219 210 201 195 190 191 193 196 200 206 211 216 218 215 218 221 221 224 225 227 223 223 226 230 232 234 237 240 236 238 237 237 238 236 244 240 237 238 241 242 241 240
235 226 214 210 200 195 196 196 197 199 204 212 218 220 222 222 222 223 227 230 229 223 231 237 242 243 243 242 247 245 242 240 239 239 238 236 239 239 239 243 246 247 247
241 229 220 212 202 204 205 200 198 200 206 214 216 220 226 226 223 225 239 248 239 222 224 230 232 236 239 239 244 247 248 248 248 248 246 242 236 239 242 245 247 249 250
312 253 230 217 205 205 206 201 199 199 211 215 211 218 222 222 216 216 230 233 217 219 226 233 233 228 243 245 248 251 247 249 250 248 246 244 241 239 239 245 245 246 247
10 20 8 262 236 219 209 198 201 215 223 218 216 223 221 219 215 216 233 235 220 227 236 232 240 238 244 248 254 257 249 247 249 249 248 248 245 242 241 243 244 247 246
17 21 22 22 333 189 173 189 204 225 229 232 232 233 228 225 222 223 237 239 229 234 241 234 235 242 248 230 244 263 258 251 252 253 247 250 252 247 243 243 242 241 245
19 19 22 18 12 12 177 161 168 202 226 238 252 249 239 235 232 233 237 243 237 239 245 242 232 242 252 218 227 250 271 270 252 245 242 244 248 247 247 244 243 242 240
22 20 29 25 24 24 43 94 84 65 17 358 312 281 264 252 248 246 248 248 245 237 244 245 235 238 251 244 226 236 249 255 275 262 238 239 240 242 246 245 245 245 242
13 18 29 31 33 29 32 50 58 51 17 328 307 300 300 286 275 269 265 261 257 249 247 248 242 239 243 253 244 232 237 240 243 270 251 232 232 238 240 239 243 245 241
19 22 22 29 33 31 38 49 55 46 18 340 345 352 347 337 333 329 314 295 278 268 262 260 258 251 246 248 250 245 243 243 241 252 268 265 244 234 234 234 240 243 239
25 24 22 29 26 20 27 31 37 32 19 13 4 359 352 342 343 354 348 344 328 310 292 283 276 270 265 260 258 253 246 240 239 245 257 263 266 260 232 231 239 241 235